Terminal Aerodrome Forecast
Issued by NWS

Home | Current Version | Previous Version | Text Only | Print | Product List | Glossary On
Versions: 1 2 3 4 5 6 7 8 9 10 11 12 13 14 15 16 17 18 19 20 21 22 23 24 25 26 27 28 29 30 31 32 33 34 35 36 37 38 39 40 41 42 43 44 45 46 47 48 49 50
000
FTAK31 PANC 260300 AAB
TAFAHO
TAF AMD
PAHO 260300Z 2603/2624 19008KT P6SM VCSH SCT025 BKN035
     FM260600 18007KT P6SM VCSH SCT035 BKN050
     FM261500 24005KT P6SM -SHRASN BKN035
     FM262100 24008KT P6SM VCSH BKN045=

USA.gov is the U.S. government's official web portal to all federal, state and local government web resources and services.